Tracking 23099 objects as of 14-May-2021
HD Live streaming from Space Station
objects crossing your sky now

STARLINK-2007

Track STARLINK-2007 now!
10-day predictions
STARLINK-2007 is classified as:


NORAD ID: 47602
Int'l Code: 2021-009BG
Perigee: 396.2 km
Apogee: 401.8 km
Inclination: 53.1 °
Period: 92.4 minutes
Semi major axis: 6770 km
RCS: Unknown
Launch date: February 4, 2021
Source: United States (US)
Launch site: AIR FORCE EASTERN TEST RANGE (AFETR)
aabbcc
Your satellite tracking list
Your tracking list is empty




NASA's NSSDC Master Catalog

Two Line Element Set (TLE):
1 47602U 21009BG  21133.91667824 -.00913126  00000-0 -12885-1 0  9993
2 47602  53.0542   1.0702 0004085 266.4359 106.5356 15.58542907 16078
Source of the keplerian elements: AFSPC